STARLINK-11306, 61254

Orbit data source: Space-Track

STARLINK-11306, 61254 is a payload satellite owned by SpaceX/Seattle (US) in LEO that was launched on Wed, 25 Sep 2024 UTC via an FALCON 9 launch vehicle from the Air Force Western Test Range (AFWTR). Payload-class satellites include a variety of spacecraft equipped with specific instruments for various scientific and technological missions. These include communications satellites like Starlink; space stations such as the ISS; scientific satellites like the Hubble; Earth observation satellites from companies like Planet Labs, Umbra, and HawkEye 360; GPS; miniature CubeSats for education and research; and military/defense satellites.

Loading next visibility...
Identifier
61254, 2024-175M
Orbit
LEO
Last TLE update
14 hours ago
Origin
Manufacturer
SpaceX/Seattle
Mission
Operational Commercial Communications
Bus & Motor
STARLINK V2M, Unknown motor
Mass
730 kg wet, ~700 kg dry
Launch date (UTC)
2024-09-25 (9 months ago)
Launch vehicle
FALCON 9
Launch site
Air Force Western Test Range (AFWTR)
Object type
Payload
Rocket body
Debris
Shape & HBR
Box + 2 Pan, 29 m
Radar Cross Section
36.964 m², Large (>1 m²)

Expand to show TLE details & history

TLE from 14 hours ago
0 STARLINK-11306
1 61254U 24175M   25181.48930199 -.00000587  00000-0  14126-7 0  9999
2 61254  53.1591 219.6569 0001150  73.2159 286.8985 15.69707485 44956
Epoch: 2025-06-30T11:44Z
TLE epoch observation values (Epoch: 2025-06-30T11:44:35.691Z)
Latitude
-0.00005°
Longitude
124.70978°
Altitude
360.424 km
Speed
7.694 km/s
True Right ascension
14h 38m 37s
True Declination
0° 00' 00"
Sunlit
Object was in full shadow at epoch
Visualization orbit readout
Latitude
8.23369°
Longitude
-64.45243°
Altitude
360.014 km
Speed
7.695 km/s
Apparent Right ascension
01h 56m 54s
Apparent Declination
-15° 03' 42"
Sunlit
Object is in daylight
Visualization observer readout
Local Sidereal Time
13:50:01
Azimuth
356.045° N
Elevation
-65.1°
Doppler factor
1
Orbital elements
Apogee altitude
360.77 km
Perigee altitude
359.22 km
Semi-major axis
6,738.132 km
Eccentricity
0.00012
Inclination
53.1591°
RAAN
219.6569°
Arg. of periapsis
73.2159°
True anomaly
Unknown
Mean anomaly
286.8985°
Eccentric anomaly
Unknown
Mean motion
3.92404 °/min
Orbital period
91.74 mins
BSTAR
1.4126e-8
Loading maneuver chart data...
Loading SW <> Apogee altitude chart data...
Loading historical data...
Loading historical data...
Loading historical data...
Loading historical data...
Loading historical data...
Loading historical data...
Loading historical data...

STARLINK-11306 Visibility forecast

Observer location: undefined°, undefined°

Span
Click to sort rows by Start time (UTC) header in descending order
Start Az.
Max El. time (UTC)
Max El. Az.
Max El.
End time (UTC)
End Az.
5 mins2025-07-01 04:42:55.413Z196.691° SSW2025-07-01 04:44:55.413Z152.76° SSE26.533°2025-07-01 04:47:55.413Z69.295° E
|